Location: Melbourne
(37.8666°S, 145.1333°E)
Time: 18:19:17
(UTC+10:00)

Amateur Radio Satellites - All Passes

Search period start: 02 August 2015 17:49
Search period end: 03 August 2015 17:49
Location: Melbourne, 37.8666°S, 145.1333°E

Satellite Date Start Highest point End Downlink Frequencies (MHz)
Time Altitude Azimuth
DANDE 02 Aug 17:50:25 17:56:10 21° 241° (WSW) 18:01:58 436.750
CUBESAT XI-V 02 Aug 18:00:05 18:04:42 65° 280° (W) 18:09:24 437.345
CUTE-I 02 Aug 18:04:29 18:09:26 35° 83° (E) 18:14:23 437.470
AO-7 02 Aug 18:05:39 18:12:37 29° 239° (WSW) 18:19:20 29.400- 29.500
CUSAT 1 02 Aug 18:08:46 18:11:32 11° 235° (SW) 18:13:41 437.405
GONETS M04 02 Aug 18:25:34 18:34:19 62° 259° (WSW) 18:43:08
BEESAT 3 02 Aug 18:35:48 18:36:49 11° 138° (SE) 18:38:00 437.485
PRISM 02 Aug 18:41:59 18:46:06 87° 109° (ESE) 18:50:18 437.425
Cubesat XI-IV 02 Aug 18:48:27 18:53:56 88° 253° (WSW) 18:59:22 437.490
STRAND 1 02 Aug 18:51:40 18:56:45 66° 281° (WNW) 19:01:56 437.568
RS-15 02 Aug 19:01:35 19:12:49 66° 295° (WNW) 19:23:30 29.354- 29.394
SO-50 02 Aug 19:23:34 19:24:37 11° 70° (ENE) 19:25:57 436.795
BRITE-PL 02 Aug 19:24:36 19:29:28 33° 86° (E) 19:34:02 437.365/2234.400
Cosmos 2499 02 Aug 19:27:49 19:36:26 86° 84° (E) 19:44:30 435.465 / 435.565
GOMX 1 02 Aug 19:31:25 19:35:11 21° 90° (E) 19:38:54 467.674
SRMSAT 02 Aug 19:31:44 19:33:54 12° 353° (N) 19:36:00 437.500
BEESAT 2 02 Aug 19:33:11 19:36:43 30° 128° (SE) 19:40:18 435.950
CUTE-I 02 Aug 19:44:46 19:49:23 28° 248° (WSW) 19:53:53 437.470
PCSat 02 Aug 19:51:30 19:56:18 34° 70° (ENE) 20:01:12 145.827
AUBIESAT-1 02 Aug 20:03:30 20:05:56 16° 115° (ESE) 20:08:26 437.475
BEESAT 3 02 Aug 20:11:19 20:15:18 78° 299° (WNW) 20:19:17 437.485
Cubesat XI-IV 02 Aug 20:31:32 20:33:19 11° 241° (WSW) 20:34:46 437.490
GONETS M04 02 Aug 20:31:38 20:33:33 10° 235° (SW) 20:34:40
HO-68 02 Aug 20:36:48 20:43:49 52° 80° (E) 20:50:46 435.675
COMPASS 1 02 Aug 20:36:53 20:40:30 28° 85° (E) 20:44:09 437.405
DOVE 4 02 Aug 20:52:05 20:57:00 89° 85° (E) 21:01:32 437.250
SEEDS 02 Aug 20:53:14 20:57:27 57° 80° (E) 21:01:36 437.485
UNISAT 6 02 Aug 20:53:35 20:55:53 14° 114° (ESE) 20:58:23 437.425
CINEMA 3 02 Aug 20:54:15 20:58:27 38° 83° (E) 21:02:28 145.822/145.860
CUTE 1.7 + AOD 2 02 Aug 20:57:44 21:02:03 82° 80° (E) 21:06:19 437.475
DELFI C3 02 Aug 20:58:31 20:59:12 10° 91° (E) 21:00:10 145.870
SO-50 02 Aug 21:00:09 21:04:41 69° 238° (WSW) 21:09:07 436.795
UWE-3 02 Aug 21:01:31 21:03:53 15° 90° (E) 21:06:24 435.000/436.395/437.385
BRITE-PL 02 Aug 21:03:09 21:07:52 29° 248° (WSW) 21:12:13 437.365/2234.400
CANX-2 02 Aug 21:06:20 21:10:37 70° 256° (WSW) 21:14:50 2200.000
Oscar 11 02 Aug 21:06:26 21:09:51 22° 86° (E) 21:13:18 145.826/435.025
M-CUBED/EXP-1 PRIME 02 Aug 21:08:04 21:12:11 66° 285° (WNW) 21:15:59 437.505
GOMX 1 02 Aug 21:08:44 21:13:32 39° 251° (WSW) 21:17:57 467.674
BEESAT 2 02 Aug 21:11:30 21:14:38 21° 293° (WNW) 21:17:40 435.950
AIST 2 02 Aug 21:12:35 21:16:46 77° 122° (ESE) 21:20:57 435.215
AAUSAT CUBESAT 2 02 Aug 21:16:57 21:21:11 72° 78° (ENE) 21:25:21 437.432
CUBEBUG 2 02 Aug 21:18:13 21:22:02 30° 85° (E) 21:25:47 437.445
RS-15 02 Aug 21:20:35 21:23:17 11° 278° (W) 21:24:41 29.354- 29.394
Cosmos 2499 02 Aug 21:25:05 21:30:38 18° 245° (WSW) 21:35:33 435.465 / 435.565
DUCHIFAT 1 02 Aug 21:26:18 21:26:47 10° 115° (ESE) 21:27:32 145.980
QB50P1 02 Aug 21:29:18 21:30:51 12° 115° (ESE) 21:32:38 145.935-145.965
NANOSAT C BR1 02 Aug 21:30:05 21:31:37 12° 115° (ESE) 21:33:24 145.865
TIGRISAT 02 Aug 21:34:19 21:38:33 36° 108° (ESE) 21:42:47 435.000
PCSat 02 Aug 21:34:53 21:39:44 32° 233° (SW) 21:44:34 145.827
ANTELSAT 02 Aug 21:36:30 21:40:49 39° 107° (ESE) 21:45:07 437.575/2403.000
AUBIESAT-1 02 Aug 21:36:47 21:40:31 34° 283° (WNW) 21:44:00 437.475
YUBILEINY 02 Aug 22:00:55 22:08:01 28° 112° (ESE) 22:15:21 435.215
ZACube-1 02 Aug 22:09:57 22:14:14 74° 79° (E) 22:18:24 437.345
POLYITAN 1 02 Aug 22:10:23 22:14:19 35° 108° (ESE) 22:18:19 437.675
COMPASS 1 02 Aug 22:12:43 22:16:02 22° 250° (WSW) 22:19:15 437.405
50 SAT 02 Aug 22:18:24 22:20:24 14° 89° (E) 22:22:33 437.505
HO-68 02 Aug 22:25:09 22:31:14 29° 243° (WSW) 22:37:07 435.675
BUGSAT 1 02 Aug 22:25:11 22:28:54 30° 109° (ESE) 22:32:45 437.445
POPSAT HIP 1 02 Aug 22:26:39 22:30:51 52° 106° (ESE) 22:35:08 437.405
UNISAT 6 02 Aug 22:27:39 22:32:15 56° 280° (W) 22:36:48 437.425
DELFI C3 02 Aug 22:30:40 22:34:40 52° 255° (WSW) 22:38:37 145.870
SEEDS 02 Aug 22:31:06 22:32:47 12° 246° (WSW) 22:34:13 437.485
FUNcube-1 02 Aug 22:31:11 22:35:25 63° 255° (WSW) 22:39:31 145.935
CINEMA 3 02 Aug 22:32:16 22:35:21 18° 247° (WSW) 22:38:12 145.822/145.860
Cosmos 2491 02 Aug 22:34:09 22:40:21 23° 97° (E) 22:46:59 435.465 / 435.565
QB50P2 02 Aug 22:34:30 22:38:48 67° 104° (ESE) 22:43:10 145.880/145.840
UWE-3 02 Aug 22:36:39 22:40:41 40° 253° (WSW) 22:44:35 435.000/436.395/437.385
Oscar 11 02 Aug 22:42:14 22:46:02 29° 251° (WSW) 22:49:44 145.826/435.025
UKube-1 02 Aug 22:43:15 22:47:25 40° 82° (E) 22:51:33 .
HUMSAT D 02 Aug 22:47:21 22:51:32 79° 79° (ENE) 22:55:39 437.325/437.525
O/OREOS (USA 219) 02 Aug 22:47:49 22:52:20 59° 114° (ESE) 22:56:46 437.305
AISAT 02 Aug 22:53:17 22:57:26 35° 83° (E) 23:01:33 437.250
CUBEBUG 2 02 Aug 22:55:19 22:58:33 20° 248° (WSW) 23:01:37 437.445
DUCHIFAT 1 02 Aug 22:57:44 23:02:02 70° 282° (WNW) 23:06:24 145.980
QB50P1 02 Aug 23:01:57 23:06:14 59° 280° (W) 23:10:34 145.935-145.965
NANOSAT C BR1 02 Aug 23:02:42 23:06:58 59° 281° (W) 23:11:18 145.865
CUBEBUG 1 02 Aug 23:04:05 23:07:50 26° 85° (E) 23:11:35 437.445
TIGRISAT 02 Aug 23:11:53 23:15:24 20° 273° (W) 23:18:45 435.000
DX 1 02 Aug 23:12:57 23:17:26 82° 259° (WSW) 23:21:50 434.975-435.025
ANTELSAT 02 Aug 23:14:27 23:17:45 18° 272° (W) 23:20:53 437.575/2403.000
VELOX 1 02 Aug 23:31:39 23:36:14 88° 265° (W) 23:40:43 145.980
SPROUT 02 Aug 23:36:19 23:39:02 17° 89° (E) 23:41:54 437.525
TISAT 1 02 Aug 23:44:35 23:45:56 12° 91° (E) 23:47:32 437.305
POLYITAN 1 02 Aug 23:47:10 23:50:19 19° 272° (W) 23:53:21 437.675
ESTCUBE 1 02 Aug 23:47:54 23:52:32 84° 253° (WSW) 23:57:07 437.505/2401.250
50 SAT 02 Aug 23:51:33 23:55:09 35° 253° (WSW) 23:58:41 437.505
AIST 1 02 Aug 23:52:15 23:56:33 66° 261° (W) 00:00:57
YUBILEINY 02 Aug 23:56:54 00:05:30 60° 272° (W) 00:13:57 435.215
BUGSAT 1 03 Aug 00:01:08 00:04:25 21° 273° (W) 00:07:38 437.445
POPSAT HIP 1 03 Aug 00:05:09 00:07:06 12° 269° (W) 00:08:49 437.405
UKube-1 03 Aug 00:20:17 00:23:15 17° 247° (WSW) 00:26:03 .
Cosmos 2491 03 Aug 00:27:44 00:36:29 70° 260° (W) 00:45:21 435.465 / 435.565
O/OREOS (USA 219) 03 Aug 00:29:42 00:31:16 11° 279° (W) 00:32:33 437.305
AISAT 03 Aug 00:30:22 00:33:47 21° 248° (WSW) 00:37:03 437.250
ITAMSAT 1 03 Aug 00:31:52 00:33:41 12° 118° (ESE) 00:35:48 435.822/435.867
CUBEBUG 1 03 Aug 00:40:18 00:44:07 27° 250° (WSW) 00:47:50 437.445
Oscar 19 03 Aug 00:43:39 00:48:46 60° 106° (ESE) 00:53:59 437.125/150
Cosmos 2504 03 Aug 00:46:13 00:52:28 33° 107° (ESE) 00:58:39 435.465 / 435.565
BEESAT 03 Aug 00:54:33 00:56:13 12° 91° (E) 00:58:11 436.000
JAS-2 03 Aug 00:58:06 00:59:02 10° 119° (ESE) 01:00:24 435.910
SPROUT 03 Aug 01:11:13 01:15:19 39° 252° (WSW) 01:19:20 437.525
DANDE 03 Aug 01:11:20 01:12:03 10° 128° (SE) 01:13:16 436.750
SWISSCUBE 03 Aug 01:13:39 01:17:20 22° 87° (E) 01:21:07 437.505
TISAT 1 03 Aug 01:17:53 01:22:06 53° 254° (WSW) 01:26:15 437.305
CUSAT 1 03 Aug 01:20:59 01:24:28 15° 122° (ESE) 01:27:48 437.405
AO-7 03 Aug 01:21:18 01:25:23 15° 128° (SE) 01:29:56 29.400- 29.500
ITUPSAT 1 03 Aug 01:34:46 01:39:07 32° 84° (E) 01:43:28 437.325
Gurwin Techsat 1B 03 Aug 01:52:43 01:58:02 80° 104° (ESE) 02:03:27 435.225
ITAMSAT 1 03 Aug 02:07:20 02:12:33 83° 283° (WNW) 02:17:51 435.822/435.867
Oscar 19 03 Aug 02:25:32 02:28:37 15° 270° (W) 02:31:26 437.125/150
BEESAT 03 Aug 02:29:46 02:34:36 65° 255° (WSW) 02:39:22 436.000
Cosmos 2491 03 Aug 02:31:53 02:35:29 12° 237° (WSW) 02:38:21 435.465 / 435.565
STARS 03 Aug 02:32:29 02:33:58 12° 91° (E) 02:35:43 437.465
JAS-2 03 Aug 02:36:32 02:43:29 71° 106° (ESE) 02:49:39 435.910
Cosmos 2504 03 Aug 02:38:16 02:44:43 38° 269° (W) 02:50:54 435.465 / 435.565
GONETS M04 03 Aug 02:46:26 02:47:40 10° 125° (SE) 02:49:43
DANDE 03 Aug 02:50:04 02:57:25 66° 103° (ESE) 03:02:57 436.750
SWISSCUBE 03 Aug 02:50:50 02:55:18 36° 251° (WSW) 02:59:41 437.505
KKS-1 03 Aug 03:00:25 03:04:44 43° 81° (E) 03:09:00 437.445
CUSAT 1 03 Aug 03:01:47 03:08:18 71° 275° (W) 03:13:07 437.405
HORYU 2 03 Aug 03:03:05 03:07:23 46° 107° (ESE) 03:11:45 437.375
AO-7 03 Aug 03:08:41 03:16:55 72° 110° (ESE) 03:25:15 29.400- 29.500
ITUPSAT 1 03 Aug 03:12:52 03:16:52 25° 248° (WSW) 03:20:44 437.325
Gurwin Techsat 1B 03 Aug 03:37:08 03:38:47 11° 267° (W) 03:40:01 435.225
VERMONT LUNAR 03 Aug 03:56:45 03:57:53 12° 35° (NE) 03:59:06 437.305
MOZHAYETS 4 03 Aug 04:01:12 04:04:55 24° 86° (E) 04:08:42
STARS 03 Aug 04:06:27 04:10:52 56° 254° (WSW) 04:15:11 437.465
JAS-2 03 Aug 04:24:29 04:29:00 17° 271° (W) 04:32:54 435.910
Cubesat XI-IV 03 Aug 04:31:26 04:34:28 16° 116° (ESE) 04:37:45 437.490
DANDE 03 Aug 04:34:59 04:39:31 18° 260° (W) 04:43:08 436.750
KKS-1 03 Aug 04:38:04 04:41:02 17° 247° (WSW) 04:43:49 437.445
GONETS M04 03 Aug 04:38:05 04:46:54 63° 101° (E) 04:55:36
PCSat 03 Aug 04:41:17 04:45:20 21° 132° (SE) 04:49:29 145.827
HORYU 2 03 Aug 04:41:40 04:44:19 15° 271° (W) 04:46:47 437.375
AO-7 03 Aug 05:04:11 05:10:31 23° 272° (W) 05:16:31 29.400- 29.500
Cosmos 2499 03 Aug 05:22:42 05:28:11 24° 112° (ESE) 05:33:49 435.465 / 435.565
CUTE-I 03 Aug 05:24:29 05:29:35 49° 108° (ESE) 05:34:47 437.470
VERMONT LUNAR 03 Aug 05:31:09 05:34:12 61° 22° (NNE) 05:37:16 437.305
SO-50 03 Aug 05:33:07 05:37:29 61° 123° (ESE) 05:41:53 436.795
MOZHAYETS 4 03 Aug 05:38:03 05:42:10 30° 251° (WSW) 05:46:11
CUBESAT XI-V 03 Aug 05:58:43 06:03:08 36° 84° (E) 06:07:32 437.345
Cubesat XI-IV 03 Aug 06:08:45 06:14:04 65° 281° (WNW) 06:19:27 437.490
PHONESAT 2.4 03 Aug 06:09:20 06:11:51 19° 32° (NNE) 06:14:27 2401.200-2431.200
PCSat 03 Aug 06:23:49 06:29:10 56° 293° (WNW) 06:34:27 145.827
PRISM 03 Aug 06:27:29 06:29:40 14° 89° (E) 06:32:04 437.425
BRITE-PL 03 Aug 06:32:40 06:37:27 33° 111° (ESE) 06:42:33 437.365/2234.400
GONETS M04 03 Aug 06:36:07 06:43:09 26° 264° (W) 06:49:48
GOMX 1 03 Aug 06:37:00 06:41:03 23° 113° (ESE) 06:45:21 467.674
HO-68 03 Aug 07:03:47 07:09:58 33° 116° (ESE) 07:16:20 435.675
STRAND 1 03 Aug 07:04:04 07:09:07 49° 81° (E) 07:14:09 437.568
CUTE-I 03 Aug 07:06:06 07:09:59 19° 272° (W) 07:13:42 437.470
VERMONT LUNAR 03 Aug 07:07:56 07:10:58 51° 185° (S) 07:14:01 437.305
RS-15 03 Aug 07:12:05 07:20:50 25° 76° (ENE) 07:30:08 29.354- 29.394
Cosmos 2499 03 Aug 07:14:52 07:21:50 54° 272° (W) 07:28:39 435.465 / 435.565
SO-50 03 Aug 07:15:42 07:17:34 12° 290° (WNW) 07:19:11 436.795
ISS 03 Aug 07:22:09 07:25:03 29° 47° (NE) 07:28:00 145.825
COMPASS 1 03 Aug 07:27:18 07:29:49 16° 112° (ESE) 07:32:30 437.405
CUBESAT XI-V 03 Aug 07:36:39 07:40:21 22° 248° (WSW) 07:43:55 437.345
SEEDS 03 Aug 07:43:36 07:47:19 31° 108° (ESE) 07:51:07 437.485
PHONESAT 2.4 03 Aug 07:46:04 07:49:31 83° 14° (NNE) 07:53:00 2401.200-2431.200
CUTE 1.7 + AOD 2 03 Aug 07:48:39 07:52:42 45° 106° (ESE) 07:56:49 437.475
CINEMA 3 03 Aug 07:53:28 07:57:56 33° 109° (ESE) 08:02:26 145.822/145.860
DOVE 4 03 Aug 07:54:28 07:59:45 74° 103° (ESE) 08:05:10 437.250
CANX-2 03 Aug 07:57:06 08:01:19 64° 104° (ESE) 08:05:36 2200.000
UWE-3 03 Aug 07:57:48 07:59:35 12° 114° (ESE) 08:01:36 435.000/436.395/437.385
Oscar 11 03 Aug 08:00:31 08:02:55 15° 113° (ESE) 08:05:31 145.826/435.025
PRISM 03 Aug 08:01:19 08:05:22 43° 253° (WSW) 08:09:23 437.425
AAUSAT CUBESAT 2 03 Aug 08:05:53 08:09:42 37° 107° (ESE) 08:13:36 437.432
BRITE-PL 03 Aug 08:11:02 08:15:54 32° 274° (W) 08:20:57 437.365/2234.400
GOMX 1 03 Aug 08:13:36 08:18:49 48° 277° (W) 08:24:12 467.674
CUBEBUG 2 03 Aug 08:14:33 08:18:18 24° 110° (ESE) 08:22:08 437.445
STRAND 1 03 Aug 08:44:14 08:47:59 20° 246° (WSW) 08:51:32 437.568
VERMONT LUNAR 03 Aug 08:44:47 08:47:52 65° 169° (S) 08:50:58 437.305
HO-68 03 Aug 08:50:36 08:57:31 46° 279° (W) 09:04:25 435.675
ISS 03 Aug 08:58:32 09:01:28 28° 211° (SSW) 09:04:25 145.825
COMPASS 1 03 Aug 09:01:15 09:05:11 39° 277° (W) 09:09:09 437.405
ZACube-1 03 Aug 09:03:38 09:08:01 47° 106° (ESE) 09:12:23 437.345
DELFI C3 03 Aug 09:15:32 09:19:32 70° 104° (ESE) 09:23:35 145.870
AUBIESAT-1 03 Aug 09:19:40 09:21:15 13° 82° (E) 09:23:01 437.475
RS-15 03 Aug 09:19:56 09:32:18 84° 238° (WSW) 09:44:21 29.354- 29.394
SEEDS 03 Aug 09:20:02 09:23:11 19° 273° (W) 09:26:13 437.485
PHONESAT 2.4 03 Aug 09:24:13 09:27:38 52° 182° (S) 09:31:02 2401.200-2431.200
FUNcube-1 03 Aug 09:24:21 09:28:55 79° 103° (ESE) 09:33:28 145.935
CUTE 1.7 + AOD 2 03 Aug 09:26:38 09:28:54 14° 270° (W) 09:30:59 437.475
CINEMA 3 03 Aug 09:30:49 09:35:06 27° 274° (W) 09:39:19 145.822/145.860
UWE-3 03 Aug 09:30:58 09:35:38 66° 281° (W) 09:40:15 435.000/436.395/437.385
Oscar 11 03 Aug 09:34:34 09:38:45 46° 279° (W) 09:42:58 145.826/435.025
DOVE 4 03 Aug 09:35:38 09:38:07 13° 267° (W) 09:40:17 437.250
UKube-1 03 Aug 09:36:28 09:40:10 28° 110° (ESE) 09:43:58 .
HUMSAT D 03 Aug 09:36:59 09:41:03 43° 106° (ESE) 09:45:09 437.325/437.525
AAUSAT CUBESAT 2 03 Aug 09:42:47 09:45:29 16° 271° (W) 09:48:01 437.432
AISAT 03 Aug 09:49:27 09:53:09 26° 111° (ESE) 09:56:59 437.250
CUBEBUG 2 03 Aug 09:50:33 09:54:51 32° 276° (W) 09:59:03 437.445
CUBEBUG 1 03 Aug 09:59:07 10:02:05 18° 113° (ESE) 10:05:13 437.445
AIST 1 03 Aug 10:01:41 10:05:23 25° 106° (ESE) 10:09:08
BEESAT 3 03 Aug 10:02:35 10:05:52 27° 66° (ENE) 10:09:14 437.485
DX 1 03 Aug 10:06:24 10:10:47 68° 105° (ESE) 10:15:13 434.975-435.025
VERMONT LUNAR 03 Aug 10:21:38 10:24:29 33° 333° (NNW) 10:27:20 437.305
UNISAT 6 03 Aug 10:21:47 10:25:41 32° 84° (E) 10:29:35 437.425
QB50P2 03 Aug 10:23:37 10:25:25 13° 90° (E) 10:27:26 145.880/145.840
M-CUBED/EXP-1 PRIME 03 Aug 10:25:08 10:28:29 60° 251° (WSW) 10:31:53 437.505
VELOX 1 03 Aug 10:27:05 10:31:32 65° 105° (ESE) 10:36:03 145.980
SPROUT 03 Aug 10:30:23 10:31:40 11° 115° (ESE) 10:33:10 437.525
50 SAT 03 Aug 10:32:47 10:36:43 89° 291° (WNW) 10:40:42 437.505
Cosmos 2491 03 Aug 10:40:25 10:49:08 56° 103° (ESE) 10:57:49 435.465 / 435.565
ZACube-1 03 Aug 10:41:54 10:44:38 15° 271° (W) 10:47:10 437.345
DUCHIFAT 1 03 Aug 10:45:02 10:48:15 21° 87° (E) 10:51:33 145.980
ESTCUBE 1 03 Aug 10:45:28 10:49:58 71° 104° (ESE) 10:54:32 437.505/2401.250
QB50P1 03 Aug 10:49:24 10:52:57 25° 85° (E) 10:56:30 145.935-145.965
NANOSAT C BR1 03 Aug 10:49:56 10:53:27 25° 85° (E) 10:56:59 145.865
AUBIESAT-1 03 Aug 10:53:06 10:56:08 30° 248° (WSW) 10:59:12 437.475
YUBILEINY 03 Aug 10:59:40 11:07:10 34° 94° (E) 11:14:54 435.215
BEESAT 2 03 Aug 11:02:16 11:06:12 78° 239° (WSW) 11:10:10 435.950
PHONESAT 2.4 03 Aug 11:02:17 11:05:46 83° 165° (SSE) 11:09:15 2401.200-2431.200
TIGRISAT 03 Aug 11:04:06 11:08:28 82° 256° (WSW) 11:12:44 435.000
ANTELSAT 03 Aug 11:06:39 11:11:00 73° 255° (WSW) 11:15:17 437.575/2403.000
AIST 2 03 Aug 11:09:33 11:12:46 24° 67° (ENE) 11:16:06 435.215
UKube-1 03 Aug 11:12:42 11:16:17 24° 274° (W) 11:19:48 .
HUMSAT D 03 Aug 11:14:33 11:17:03 14° 271° (W) 11:19:20 437.325/437.525
AISAT 03 Aug 11:25:47 11:29:40 27° 275° (W) 11:33:30 437.250
POLYITAN 1 03 Aug 11:32:53 11:37:13 84° 81° (E) 11:41:28 437.675
CUBEBUG 1 03 Aug 11:34:00 11:38:09 39° 277° (W) 11:42:22 437.445
RS-15 03 Aug 11:36:42 11:46:55 29° 213° (SSW) 11:56:34 29.354- 29.394
AIST 1 03 Aug 11:39:18 11:42:59 25° 270° (W) 11:46:32
BEESAT 3 03 Aug 11:40:34 11:43:47 23° 230° (SW) 11:46:57 437.485
BUGSAT 1 03 Aug 11:43:58 11:48:15 67° 79° (E) 11:52:25 437.445
POPSAT HIP 1 03 Aug 11:49:17 11:53:34 64° 255° (WSW) 11:57:45 437.405
QB50P2 03 Aug 11:57:28 12:01:40 49° 254° (WSW) 12:05:46 145.880/145.840
UNISAT 6 03 Aug 11:59:05 12:02:17 20° 248° (WSW) 12:05:20 437.425
BEESAT 03 Aug 11:59:51 12:01:42 12° 116° (ESE) 12:03:48 436.000
SPROUT 03 Aug 12:02:53 12:07:13 64° 281° (W) 12:11:37 437.525
TISAT 1 03 Aug 12:07:35 12:11:53 87° 100° (E) 12:16:16 437.305
VELOX 1 03 Aug 12:07:38 12:08:37 10° 268° (W) 12:09:16 145.980
SWISSCUBE 03 Aug 12:18:48 12:22:20 21° 113° (ESE) 12:26:01 437.505
DUCHIFAT 1 03 Aug 12:20:20 12:24:06 29° 251° (WSW) 12:27:45 145.980
QB50P1 03 Aug 12:25:09 12:28:44 25° 250° (WSW) 12:32:12 145.935-145.965
NANOSAT C BR1 03 Aug 12:25:38 12:29:13 25° 250° (WSW) 12:32:40 145.865
Cosmos 2491 03 Aug 12:38:08 12:45:35 30° 265° (W) 12:52:41 435.465 / 435.565
ITUPSAT 1 03 Aug 12:39:57 12:44:07 31° 110° (ESE) 12:48:23 437.325
PHONESAT 2.4 03 Aug 12:40:35 12:43:31 25° 330° (NNW) 12:46:25 2401.200-2431.200
AIST 2 03 Aug 12:47:42 12:51:14 28° 231° (SW) 12:54:46 435.215
YUBILEINY 03 Aug 12:55:14 13:03:45 49° 256° (WSW) 13:12:14 435.215
Oscar 19 03 Aug 12:57:47 13:01:55 24° 86° (E) 13:06:07 437.125/150
O/OREOS (USA 219) 03 Aug 12:57:52 13:02:30 82° 247° (WSW) 13:07:09 437.305
Cosmos 2504 03 Aug 13:13:58 13:20:45 30° 93° (E) 13:27:29 435.465 / 435.565
BUGSAT 1 03 Aug 13:22:22 13:23:10 10° 244° (WSW) 13:23:43 437.445
BEESAT 03 Aug 13:34:14 13:38:59 70° 282° (WNW) 13:43:50 436.000
ISS 03 Aug 13:51:14 13:53:58 23° 152° (SSE) 13:56:44 145.825
SWISSCUBE 03 Aug 13:55:30 13:59:58 38° 277° (W) 14:04:26 437.505
KKS-1 03 Aug 13:56:49 14:00:49 32° 109° (ESE) 14:04:55 437.445
RS-15 03 Aug 13:58:13 14:05:03 16° 179° (S) 14:11:45 29.354- 29.394
Gurwin Techsat 1B 03 Aug 14:11:05 14:16:02 37° 83° (E) 14:20:59 435.225
DANDE 03 Aug 14:15:43 14:19:49 16° 100° (E) 14:24:43 436.750
ITUPSAT 1 03 Aug 14:18:02 14:22:01 25° 274° (W) 14:25:58 437.325
CUSAT 1 03 Aug 14:20:55 14:26:50 26° 95° (E) 14:33:25 437.405
ITAMSAT 1 03 Aug 14:22:13 14:27:12 41° 82° (E) 14:32:10 435.822/435.867
Oscar 19 03 Aug 14:36:36 14:41:23 37° 250° (WSW) 14:46:03 437.125/150
STARS 03 Aug 15:01:00 15:05:30 82° 283° (WNW) 15:10:03 437.465
MOZHAYETS 4 03 Aug 15:01:59 15:05:09 19° 112° (ESE) 15:08:29
Cosmos 2504 03 Aug 15:04:28 15:12:40 53° 258° (WSW) 15:20:22 435.465 / 435.565
AO-7 03 Aug 15:13:17 15:19:49 26° 87° (E) 15:26:38 29.400- 29.500
ISS 03 Aug 15:27:23 15:30:32 40° 315° (NW) 15:33:37 145.825
JAS-2 03 Aug 15:32:49 15:38:03 69° 78° (ENE) 15:43:24 435.910
KKS-1 03 Aug 15:33:58 15:37:31 22° 274° (W) 15:40:59 437.445
JUGNU 03 Aug 15:34:33 15:37:01 13° 3° (N) 15:39:29 437.505
GONETS M04 03 Aug 15:46:31 15:49:22 12° 102° (ESE) 15:53:01
Gurwin Techsat 1B 03 Aug 15:51:24 15:55:51 26° 248° (WSW) 16:00:10 435.225
DANDE 03 Aug 15:54:15 16:01:44 84° 83° (E) 16:10:26 436.750
CUSAT 1 03 Aug 16:01:06 16:08:48 68° 258° (WSW) 16:17:09 437.405
ITAMSAT 1 03 Aug 16:02:17 16:06:29 23° 247° (WSW) 16:10:31 435.822/435.867
RS-15 03 Aug 16:13:04 16:22:52 31° 145° (SE) 16:32:30 29.354- 29.394
HORYU 2 03 Aug 16:32:21 16:36:49 67° 255° (WSW) 16:41:13 437.375
MOZHAYETS 4 03 Aug 16:37:49 16:42:07 39° 277° (W) 16:46:27
CUBESAT XI-V 03 Aug 17:00:32 17:04:29 29° 110° (ESE) 17:08:35 437.345
AO-7 03 Aug 17:04:56 17:13:14 65° 249° (WSW) 17:21:28 29.400- 29.500
JAS-2 03 Aug 17:20:11 17:22:42 13° 243° (WSW) 17:24:57 435.910
JUGNU 03 Aug 17:23:26 17:25:10 11° 353° (N) 17:26:52 437.505
SRMSAT 03 Aug 17:29:55 17:32:37 13° 2° (N) 17:35:21 437.500
